[Iaude] MPEC D02: 2018 CV13 [a=1.33,e=0.15,i=16.8,H=21.1]

mpec at mpcdb1.cfa.harvard.edu mpec at mpcdb1.cfa.harvard.edu
Fri Feb 16 14:55:17 EST 2018


M.P.E.C. 2018-D02                                Issued 2018 Feb. 16, 19:51 UT
 
     The Minor Planet Electronic Circulars contain information on unusual
         minor planets and routine data on comets.  They are published
    on behalf of Division F of the International Astronomical Union by the
          Minor Planet Center, Smithsonian Astrophysical Observatory,
                          Cambridge, MA 02138, U.S.A.

             Prepared using the Tamkin Foundation Computer Network

                              MPC at CFA.HARVARD.EDU
            URL https://www.minorplanetcenter.net/    ISSN 1523-6714


                                   2018 CV13
 
Observations:
     K18C13V  C2017 12 29.55572 10 38 33.239+06 15 46.91         21.4 iUED002F51
     K18C13V  C2017 12 29.56709 10 38 33.723+06 15 59.28         22.1 iUED002F51
     K18C13V  C2017 12 29.57845 10 38 34.201+06 16 11.53         21.7 iUED002F51
     K18C13V  C2017 12 29.58981 10 38 34.721+06 16 24.53         22.1 iUED002F51
     K18C13V* C2018 02 10.31519 10 24 26.35 +28 35 21.4          20.7 GUED002G96
     K18C13V  C2018 02 10.32038 10 24 25.90 +28 35 33.3                UED002G96
     K18C13V  C2018 02 10.32556 10 24 25.48 +28 35 42.0          20.7 GUED002G96
     K18C13V  C2018 02 10.33074 10 24 24.92 +28 35 54.2          20.9 GUED002G96
     K18C13V KC2018 02 12.26803 10 21 29.06 +29 42 51.8          20.6 RqED002734
     K18C13V KC2018 02 12.27262 10 21 28.65 +29 43 01.1          20.8 RqED002734
     K18C13V KC2018 02 12.28180 10 21 27.74 +29 43 20.6          20.5 RqED002734
     K18C13V IC2018 02 13.92809 10 18 53.89 +30 38 11.1                UED002J95
     K18C13V KC2018 02 13.93874 10 18 52.85 +30 38 32.5          20.8 GUED002J95
     K18C13V KC2018 02 14.87387 10 17 23.88 +31 08 51.6          21.8 RUED002K51
     K18C13V KC2018 02 14.87763 10 17 23.50 +31 08 59.0          21.8 RUED002K51
     K18C13V KC2018 02 14.88138 10 17 23.11 +31 09 06.4          21.2 RUED002K51
 
Observer details:
734 Farpoint Observatory.  Observer G. Hug.  0.69-m reflector + CCD.
F51 Pan-STARRS 1, Haleakala.  Observers J. Bulger, T. Lowe, A. Schultz,
    M. Willman.  Measurers K. Chambers, S. Chastel, L. Denneau, H. Flewelling,
    M. Huber, E. Lilly, E. Magnier, R. Wainscoat, C. Waters, R. Weryk.  1.8-m
    Ritchey-Chretien + CCD.
G96 Mt. Lemmon Survey.  Observer D. C. Fuls.  Measurers E. J. Christensen,
    D. C. Fuls, A. R. Gibbs, A. D. Grauer, J. A. Johnson, R. A. Kowalski,
    S. M. Larson, G. J. Leonard, R. G. Matheny, R. L. Seaman, F. C. Shelly.
    1.5-m reflector + 10K CCD.
J95 Great Shefford.  Observer P. Birtwhistle.  0.40-m f/6.0 Schmidt-Cassegrain
    + CCD.
K51 Osservatorio del Celado, Castello Tesino.  Observers G. Favero, R. Furgoni.
    Measurer R. Furgoni.  0.80-m f/4 reflector + CCD.
 
Orbital elements:
2018 CV13                                                Earth MOID = 0.1902 AU
Epoch 2018 Mar. 23.0 TT = JDT 2458200.5                 MPC
M 151.43795              (2000.0)            P               Q
n   0.64003583     Peri.  242.56944     +0.96250868     -0.12509781
a   1.3335210      Node   123.67181     +0.18255515     +0.95502529
e   0.1475999      Incl.   16.81017     -0.20062567     +0.26884424
P   1.54           H   21.1           G   0.15           U   5
Residuals in seconds of arc
171229 F51  0.4+  0.1+    180210 G96  1.1+  1.3-    180213 J95  0.1+  0.1-
171229 F51  0.1+  0.0     180210 G96  0.3+  0.0     180214 K51  0.3+  0.3+
171229 F51  0.3-  0.3-    180212 734  0.9-  0.1+    180214 K51  0.3+  0.3+
171229 F51  0.1-  0.3+    180212 734  0.3-  0.0     180214 K51  0.1+  0.4+
180210 G96  0.6-  0.1+    180212 734  0.3-  0.8+
180210 G96  0.1+  1.0+    180213 J95  0.1-  0.3-

Ephemeris:
2018 CV13                a,e,i = 1.33, 0.15, 17                  q = 1.1367
Date    TT    R. A. (2000) Decl.     Delta      r     Elong.  Phase     V
2018 01 17    10 45 27.7 +13 57 23   0.5280  1.4239   138.7    27.1    21.7
...
2018 02 01    10 36 23.7 +22 51 28   0.4932  1.4499   156.1    16.0    21.2
...
2018 02 09    10 26 21.3 +27 48 37   0.4931  1.4625   161.5    12.4    21.1
...
2018 02 15    10 17 11.2 +31 12 58   0.5022  1.4713   160.8    12.7    21.2
2018 02 16    10 15 34.8 +31 44 29   0.5045  1.4727   160.3    13.1    21.2
2018 02 17    10 13 57.7 +32 15 09   0.5070  1.4741   159.7    13.5    21.2
...
2018 02 23    10 04 14.5 +34 59 36   0.5263  1.4822   154.6    16.6    21.4
...
2018 03 03    09 52 22.4 +37 42 28   0.5624  1.4920   146.3    21.6    21.8
...
2018 03 18    09 38 12.9 +40 06 15   0.6543  1.5076   131.0    29.9    22.4

A. U. Tomatic                (C) Copyright 2018 MPC           M.P.E.C. 2018-D02



More information about the Iaude mailing list